| time (UTC) | temp F | wind direction | speed MPH | gust MPH | rain 1hr in | rain 24hr in | rain mn in | humidity % | barometer mb |
| 20260902113044 | 64 | 221 | 3.0 | 8.0 | 0.00 | 0.00 | 0.00 | 86 | 1014.0 |
| 20260902111547 | 64 | 241 | 3.0 | 10.0 | 0.00 | 0.00 | 0.00 | 86 | 1014.1 |
| 20260902110057 | 64 | 235 | 3.0 | 9.0 | 0.00 | 0.00 | 0.00 | 86 | 1014.2 |
| 20260902104540 | 64 | 235 | 3.0 | 9.0 | 0.00 | 0.00 | 0.00 | 87 | 1014.2 |
| 20260902103041 | 63 | 251 | 4.0 | 11.0 | 0.00 | 0.00 | 0.00 | 87 | 1014.3 |
| 20260902101541 | 63 | 242 | 4.0 | 8.0 | 0.00 | 0.00 | 0.00 | 86 | 1014.2 |
| 20260902100037 | 63 | 244 | 4.0 | 9.0 | 0.00 | 0.00 | 0.00 | 86 | 1014.2 |
| 20260902094543 | 63 | 219 | 2.0 | 9.0 | 0.00 | 0.00 | 0.00 | 87 | 1014.2 |
| 20260902093035 | 62 | 219 | 2.0 | 10.0 | 0.00 | 0.00 | 0.00 | 88 | 1014.0 |
| 20260902091532 | 62 | 252 | 2.0 | 9.0 | 0.00 | 0.00 | 0.00 | 89 | 1014.0 |
| 20260902090031 | 61 | 289 | 4.0 | 11.0 | 0.00 | 0.00 | 0.00 | 89 | 1013.8 |
| 20260902084537 | 61 | 221 | 4.0 | 10.0 | 0.00 | 0.00 | 0.00 | 88 | 1013.6 |
| 20260902083027 | 61 | 268 | 4.0 | 10.0 | 0.00 | 0.00 | 0.00 | 89 | 1013.7 |
| 20260902081526 | 61 | 248 | 3.0 | 10.0 | 0.00 | 0.00 | 0.00 | 88 | 1013.9 |
| 20260902080024 | 61 | 263 | 3.0 | 10.0 | 0.00 | 0.00 | 0.00 | 89 | 1013.7 |
| 20260902074523 | 61 | 255 | 3.0 | 9.0 | 0.00 | 0.00 | 0.00 | 88 | 1013.8 |
| 20260902073021 | 61 | 232 | 3.0 | 9.0 | 0.00 | 0.00 | 0.00 | 89 | 1013.7 |
| 20260902071531 | 61 | 238 | 1.0 | 10.0 | 0.00 | 0.00 | 0.00 | 89 | 1013.6 |
| 20260902070017 | 60 | 267 | 3.0 | 10.0 | 0.00 | 0.00 | 0.00 | 89 | 1013.5 |
| 20260902064617 | 61 | 277 | 2.0 | 10.0 | 0.00 | 0.00 | 0.00 | 89 | 1013.4 |
| 20260902063028 | 60 | 262 | 3.0 | 8.0 | 0.00 | 0.00 | 0.00 | 89 | 1013.3 |
| 20260902061514 | 60 | 277 | 3.0 | 9.0 | 0.00 | 0.00 | 0.00 | 89 | 1013.2 |
| 20260902060011 | 60 | 212 | 1.0 | 8.0 | 0.00 | 0.00 | 0.00 | 89 | 1013.2 |
| 20260902054519 | 60 | 289 | 1.0 | 6.0 | 0.00 | 0.00 | 0.00 | 89 | 1013.1 |
| 20260902053018 | 60 | 267 | 1.0 | 7.0 | 0.00 | 0.00 | 0.00 | 89 | 1012.9 |
| 20260902051509 | 60 | 259 | 1.0 | 7.0 | 0.00 | 0.00 | 0.00 | 89 | 1012.9 |
| 20260902050007 | 60 | 245 | 3.0 | 8.0 | 0.00 | 0.00 | 0.00 | 89 | 1012.8 |
| 20260902044503 | 60 | 313 | 1.0 | 8.0 | 0.00 | 0.00 | 0.00 | 89 | 1012.6 |
| 20260902043002 | 60 | 275 | 1.0 | 7.0 | 0.00 | 0.00 | 0.00 | 89 | 1012.5 |
| 20260902041501 | 60 | 275 | 1.0 | 6.0 | 0.00 | 0.00 | 0.00 | 89 | 1012.5 |
| 20260902034558 | 61 | 298 | 1.0 | 5.0 | 0.00 | 0.00 | 0.00 | 89 | 1012.4 |
| 20260902033107 | 61 | 242 | 1.0 | 5.0 | 0.00 | 0.00 | 0.00 | 89 | 1012.2 |
| 20260902031557 | 61 | 225 | 1.0 | 8.0 | 0.00 | 0.00 | 0.00 | 88 | 1012.3 |
| 20260902030057 | 61 | 273 | 1.0 | 8.0 | 0.00 | 0.00 | 0.00 | 88 | 1012.4 |
| 20260902024555 | 61 | 296 | 1.0 | 9.0 | 0.00 | 0.00 | 0.00 | 88 | 1012.2 |
| 20260902023055 | 61 | 237 | 0.0 | 3.0 | 0.00 | 0.00 | 0.00 | 89 | 1012.2 |
| 20260902021602 | 61 | 260 | 1.0 | 5.0 | 0.00 | 0.00 | 0.00 | 88 | 1012.1 |
| 20260902020053 | 61 | 311 | 1.0 | 11.0 | 0.00 | 0.00 | 0.00 | 88 | 1012.2 |
| 20260902014552 | 61 | 311 | 1.0 | 7.0 | 0.00 | 0.00 | 0.00 | 88 | 1012.1 |
| 20260902013053 | 62 | 288 | 2.0 | 10.0 | 0.00 | 0.00 | 0.00 | 88 | 1012.1 |
| 20260902011551 | 61 | 301 | 3.0 | 13.0 | 0.00 | 0.00 | 0.00 | 88 | 1011.9 |
| 20260902003100 | 62 | 298 | 1.0 | 10.0 | 0.00 | 0.00 | 0.00 | 87 | 1011.8 |
| 20260901234558 | 62 | 306 | 1.0 | 7.0 | 0.00 | 0.00 | 0.00 | 87 | 1011.6 |
| 20260901233049 | 62 | 293 | 0.0 | 7.0 | 0.00 | 0.00 | 0.00 | 86 | 1011.6 |
| 20260901231549 | 62 | 289 | 1.0 | 5.0 | 0.00 | 0.00 | 0.00 | 86 | 1011.6 |
| 20260901230049 | 63 | 283 | 0.0 | 8.0 | 0.00 | 0.00 | 0.00 | 87 | 1011.5 |
| 20260901224547 | 62 | 288 | 1.0 | 4.0 | 0.00 | 0.00 | 0.00 | 89 | 1011.5 |
| 20260901223044 | 62 | 265 | 0.0 | 0.0 | 0.00 | 0.00 | 0.00 | 89 | 1011.5 |
| 20260901221606 | 61 | 285 | 0.0 | 0.0 | 0.00 | 0.00 | 0.00 | 89 | 1011.6 |
| 20260901220039 | 59 | 229 | 0.0 | 0.0 | 0.00 | 0.00 | 0.00 | 88 | 1011.5 |
| 20260901214538 | 58 | 206 | 0.0 | 0.0 | 0.00 | 0.00 | 0.00 | 89 | 1011.5 |
| 20260901213058 | 57 | 188 | 0.0 | 0.0 | 0.00 | 0.00 | 0.00 | 89 | 1011.4 |
| 20260901211542 | 57 | 188 | 0.0 | 0.0 | 0.00 | 0.00 | 0.00 | 90 | 1011.5 |
| 20260901210039 | 57 | 188 | 0.0 | 0.0 | 0.00 | 0.00 | 0.00 | 91 | 1011.4 |
| 20260901204535 | 56 | 188 | 0.0 | 0.0 | 0.00 | 0.00 | 0.00 | 92 | 1011.4 |
| 20260901203042 | 57 | 188 | 0.0 | 0.0 | 0.00 | 0.00 | 0.00 | 92 | 1011.4 |
| 20260901201533 | 57 | 188 | 0.0 | 1.0 | 0.00 | 0.00 | 0.00 | 92 | 1011.4 |
| 20260901200040 | 57 | 188 | 0.0 | 0.0 | 0.00 | 0.00 | 0.00 | 92 | 1011.4 |
| 20260901194529 | 58 | 188 | 0.0 | 2.0 | 0.00 | 0.00 | 0.00 | 92 | 1011.4 |
| 20260901193028 | 58 | 188 | 0.0 | 0.0 | 0.00 | 0.00 | 0.00 | 93 | 1011.4 |
| 20260901191527 | 59 | 188 | 0.0 | 0.0 | 0.00 | 0.00 | 0.00 | 93 | 1011.4 |
| 20260901190025 | 59 | 188 | 0.0 | 1.0 | 0.00 | 0.00 | 0.00 | 93 | 1011.4 |
| 20260901184532 | 60 | 189 | 0.0 | 0.0 | 0.00 | 0.00 | 0.00 | 92 | 1011.4 |
| 20260901183023 | 61 | 190 | 0.0 | 0.0 | 0.00 | 0.00 | 0.00 | 91 | 1011.2 |
| 20260901181523 | 61 | 190 | 0.0 | 0.0 | 0.00 | 0.00 | 0.00 | 92 | 1011.2 |
| 20260901180023 | 62 | 190 | 0.0 | 1.0 | 0.00 | 0.00 | 0.00 | 91 | 1011.1 |
| 20260901174522 | 62 | 190 | 0.0 | 0.0 | 0.00 | 0.00 | 0.00 | 90 | 1011.0 |
| 20260901173022 | 63 | 190 | 0.0 | 3.0 | 0.00 | 0.00 | 0.00 | 90 | 1011.0 |
| 20260901171524 | 63 | 192 | 1.0 | 5.0 | 0.00 | 0.00 | 0.00 | 90 | 1011.0 |
| 20260901170021 | 63 | 188 | 1.0 | 4.0 | 0.00 | 0.00 | 0.00 | 90 | 1011.0 |
| 20260901164521 | 63 | 194 | 2.0 | 6.0 | 0.00 | 0.00 | 0.00 | 90 | 1011.1 |
| 20260901163020 | 64 | 208 | 3.0 | 9.0 | 0.00 | 0.00 | 0.00 | 89 | 1011.1 |
| 20260901161542 | 64 | 184 | 1.0 | 7.0 | 0.00 | 0.00 | 0.00 | 89 | 1011.1 |
| 20260901160040 | 64 | 179 | 1.0 | 4.0 | 0.00 | 0.00 | 0.00 | 90 | 1011.0 |
| 20260901154540 | 63 | 217 | 1.0 | 5.0 | 0.00 | 0.00 | 0.00 | 90 | 1011.0 |
| 20260901153040 | 64 | 188 | 1.0 | 5.0 | 0.00 | 0.00 | 0.00 | 90 | 1011.0 |
| 20260901151539 | 64 | 205 | 1.0 | 3.0 | 0.00 | 0.00 | 0.00 | 89 | 1011.1 |
| 20260901150038 | 64 | 234 | 0.0 | 5.0 | 0.00 | 0.00 | 0.00 | 89 | 1011.0 |
| 20260901144538 | 64 | 195 | 1.0 | 3.0 | 0.00 | 0.00 | 0.00 | 88 | 1011.0 |
| 20260901143039 | 63 | 187 | 1.0 | 4.0 | 0.00 | 0.00 | 0.00 | 89 | 1011.0 |
| 20260901141547 | 63 | 174 | 2.0 | 4.0 | 0.00 | 0.00 | 0.00 | 88 | 1011.0 |
| 20260901140039 | 64 | 182 | 2.0 | 4.0 | 0.00 | 0.00 | 0.00 | 89 | 1011.1 |
| 20260901134535 | 63 | 174 | 1.0 | 6.0 | 0.00 | 0.00 | 0.00 | 90 | 1011.1 |
| 20260901133040 | 62 | 275 | 1.0 | 4.0 | 0.00 | 0.00 | 0.00 | 91 | 1011.2 |
| 20260901131534 | 62 | 275 | 2.0 | 6.0 | 0.00 | 0.00 | 0.00 | 91 | 1011.2 |
| 20260901130032 | 62 | 279 | 0.0 | 5.0 | 0.00 | 0.00 | 0.00 | 91 | 1011.1 |
| 20260901124534 | 62 | 263 | 2.0 | 8.0 | 0.00 | 0.00 | 0.00 | 90 | 1011.2 |
| 20260901123032 | 62 | 274 | 2.0 | 8.0 | 0.00 | 0.00 | 0.00 | 90 | 1011.1 |
| 20260901121536 | 63 | 294 | 1.0 | 8.0 | 0.00 | 0.00 | 0.00 | 90 | 1011.1 |
| 20260901120041 | 63 | 257 | 2.0 | 10.0 | 0.00 | 0.00 | 0.00 | 89 | 1011.1 |
| 20260901114531 | 64 | 263 | 3.0 | 10.0 | 0.00 | 0.00 | 0.00 | 88 | 1011.1 |